Time,TemperatureF,DewpointF,PressureIn,WindDirection,WindDirectionDegrees,WindSpeedMPH,WindSpeedGustMPH,Humidity,HourlyPrecipIn,Conditions,Clouds,dailyrainin,SoftwareType,DateUTC
2013-08-09 00:01:00,55.0,39.0,-100.00,North,-999,-999.0,-999.0,53,-99.99,,,-99.99,,2013-08-09 07:01:00,
2013-08-09 00:12:00,55.0,38.0,-100.00,SE,143,0.0,2.0,53,-99.99,,,-99.99,,2013-08-09 07:12:00,
2013-08-09 00:21:00,55.0,38.0,-100.00,SE,143,0.0,2.0,53,-99.99,,,-99.99,,2013-08-09 07:21:00,
2013-08-09 00:33:00,55.0,38.0,-100.00,SE,143,0.0,2.0,53,-99.99,,,-99.99,,2013-08-09 07:33:00,
2013-08-09 10:33:00,61.0,46.0,-100.00,WNW,285,2.0,5.0,57,-99.99,,,-99.99,,2013-08-09 17:33:00,
2013-08-09 10:43:00,62.0,47.0,-100.00,West,263,2.0,5.0,57,-99.99,,,-99.99,,2013-08-09 17:43:00,
2013-08-09 10:52:00,62.0,47.0,-100.00,West,263,2.0,5.0,57,-99.99,,,-99.99,,2013-08-09 17:52:00,
2013-08-09 11:01:00,62.0,47.0,-100.00,West,263,2.0,5.0,57,-99.99,,,-99.99,,2013-08-09 18:01:00,
2013-08-09 11:11:00,63.0,47.0,-100.00,NW,326,2.0,7.0,55,-99.99,,,-99.99,,2013-08-09 18:11:00,
2013-08-09 11:22:00,63.0,47.0,-100.00,NW,326,2.0,7.0,55,-99.99,,,-99.99,,2013-08-09 18:22:00,
2013-08-09 11:32:00,63.0,47.0,-100.00,NW,326,2.0,7.0,55,-99.99,,,-99.99,,2013-08-09 18:32:00,
2013-08-09 11:43:00,64.0,45.0,-100.00,WNW,282,2.0,6.0,51,-99.99,,,-99.99,,2013-08-09 18:43:00,
2013-08-09 11:53:00,64.0,45.0,-100.00,WNW,282,2.0,6.0,51,-99.99,,,-99.99,,2013-08-09 18:53:00,
2013-08-09 12:02:00,66.0,46.0,-100.00,NNW,328,2.0,5.0,48,-99.99,,,-99.99,,2013-08-09 19:02:00,
2013-08-09 12:11:00,66.0,46.0,-100.00,NNW,328,2.0,5.0,48,-99.99,,,-99.99,,2013-08-09 19:11:00,
2013-08-09 12:22:00,66.0,45.0,-100.00,NW,308,2.0,5.0,46,-99.99,,,-99.99,,2013-08-09 19:22:00,
2013-08-09 12:32:00,66.0,45.0,-100.00,NW,308,2.0,5.0,46,-99.99,,,-99.99,,2013-08-09 19:32:00,
2013-08-09 12:43:00,68.0,46.0,-100.00,NNW,328,2.0,5.0,45,-99.99,,,-99.99,,2013-08-09 19:43:00,
2013-08-09 13:43:00,71.0,40.0,-100.00,WNW,302,2.0,5.0,32,-99.99,,,-99.99,,2013-08-09 20:43:00,
2013-08-09 13:52:00,71.0,40.0,-100.00,WNW,302,2.0,5.0,32,-99.99,,,-99.99,,2013-08-09 20:52:00,
2013-08-09 14:01:00,71.0,40.0,-100.00,WNW,302,2.0,5.0,32,-99.99,,,-99.99,,2013-08-09 21:01:00,
2013-08-09 14:52:00,74.0,36.0,-100.00,NW,322,2.0,6.0,25,-99.99,,,-99.99,,2013-08-09 21:52:00,
2013-08-09 15:01:00,74.0,36.0,-100.00,NW,322,2.0,6.0,25,-99.99,,,-99.99,,2013-08-09 22:01:00,
2013-08-09 15:22:00,75.0,38.0,-100.00,North,354,2.0,6.0,26,-99.99,,,-99.99,,2013-08-09 22:22:00,
2013-08-09 15:32:00,74.0,35.0,-100.00,NNW,335,2.0,5.0,24,-99.99,,,-99.99,,2013-08-09 22:32:00,
2013-08-09 15:42:00,74.0,35.0,-100.00,NNW,335,2.0,5.0,24,-99.99,,,-99.99,,2013-08-09 22:42:00,
2013-08-09 15:52:00,74.0,35.0,-100.00,NNW,335,2.0,5.0,24,-99.99,,,-99.99,,2013-08-09 22:52:00,
2013-08-09 16:43:00,73.0,35.0,-100.00,NNE,28,5.0,8.0,25,-99.99,,,-99.99,,2013-08-09 23:43:00,
2013-08-09 16:52:00,73.0,35.0,-100.00,NNE,28,5.0,8.0,25,-99.99,,,-99.99,,2013-08-09 23:52:00,
2013-08-09 17:01:00,73.0,35.0,-100.00,NNE,28,5.0,8.0,25,-99.99,,,-99.99,,2013-08-10 00:01:00,
2013-08-09 17:22:00,71.0,40.0,-100.00,NNE,31,5.0,8.0,32,-99.99,,,-99.99,,2013-08-10 00:22:00,
2013-08-09 17:33:00,71.0,40.0,-100.00,NNE,31,5.0,8.0,32,-99.99,,,-99.99,,2013-08-10 00:33:00,
2013-08-09 17:43:00,71.0,40.0,-100.00,NE,35,5.0,9.0,33,-99.99,,,-99.99,,2013-08-10 00:43:00,
2013-08-09 17:50:00,68.0,41.0,-100.00,NNE,27,5.0,10.0,38,-99.99,,,-99.99,,2013-08-10 00:50:00,
2013-08-09 17:52:00,71.0,40.0,-100.00,NE,35,5.0,9.0,33,-99.99,,,-99.99,,2013-08-10 00:52:00,
2013-08-09 18:01:00,70.0,42.0,-100.00,NE,40,3.0,13.0,36,-99.99,,,-99.99,,2013-08-10 01:01:00,
2013-08-09 18:11:00,70.0,42.0,-100.00,NE,40,3.0,13.0,36,-99.99,,,-99.99,,2013-08-10 01:11:00,
2013-08-09 18:21:00,68.0,41.0,-100.00,NNE,27,5.0,10.0,38,-99.99,,,-99.99,,2013-08-10 01:21:00,
2013-08-09 18:32:00,68.0,41.0,-100.00,NNE,27,5.0,10.0,38,-99.99,,,-99.99,,2013-08-10 01:32:00,
2013-08-09 18:42:00,68.0,41.0,-100.00,NNE,27,5.0,10.0,38,-99.99,,,-99.99,,2013-08-10 01:42:00,
2013-08-09 19:11:00,66.0,41.0,-100.00,North,-999,-999.0,-999.0,39,-99.99,,,-99.99,,2013-08-10 02:11:00,
2013-08-09 19:21:00,66.0,40.0,-100.00,NE,42,3.0,9.0,39,-99.99,,,-99.99,,2013-08-10 02:21:00,
2013-08-09 19:32:00,66.0,40.0,-100.00,NE,42,3.0,9.0,39,-99.99,,,-99.99,,2013-08-10 02:32:00,
2013-08-09 19:42:00,66.0,40.0,-100.00,NE,42,3.0,9.0,39,-99.99,,,-99.99,,2013-08-10 02:42:00,
2013-08-09 19:52:00,66.0,40.0,-100.00,NE,42,3.0,9.0,39,-99.99,,,-99.99,,2013-08-10 02:52:00,
2013-08-09 20:01:00,63.0,38.0,-100.00,North,-999,-999.0,-999.0,40,-99.99,,,-99.99,,2013-08-10 03:01:00,
2013-08-09 20:11:00,63.0,38.0,-100.00,ENE,72,2.0,5.0,40,-99.99,,,-99.99,,2013-08-10 03:11:00,
2013-08-09 20:21:00,63.0,38.0,-100.00,ENE,72,2.0,5.0,40,-99.99,,,-99.99,,2013-08-10 03:21:00,
2013-08-09 20:32:00,63.0,38.0,-100.00,ENE,72,2.0,5.0,40,-99.99,,,-99.99,,2013-08-10 03:32:00,
2013-08-09 21:01:00,59.0,36.0,-100.00,North,-999,-999.0,-999.0,41,-99.99,,,-99.99,,2013-08-10 04:01:00,
2013-08-09 21:02:00,56.0,36.0,-100.00,SSE,148,1.0,6.0,46,-99.99,,,-99.99,,2013-08-10 04:02:00,
2013-08-09 21:12:00,59.0,35.0,-100.00,ENE,65,3.0,7.0,41,-99.99,,,-99.99,,2013-08-10 04:12:00,
2013-08-09 21:22:00,59.0,35.0,-100.00,ENE,65,3.0,7.0,41,-99.99,,,-99.99,,2013-08-10 04:22:00,
2013-08-09 21:32:00,56.0,36.0,-100.00,SSE,148,1.0,6.0,46,-99.99,,,-99.99,,2013-08-10 04:32:00,
2013-08-09 21:42:00,56.0,36.0,-100.00,SSE,148,1.0,6.0,46,-99.99,,,-99.99,,2013-08-10 04:42:00,
2013-08-09 21:53:00,56.0,36.0,-100.00,SSE,148,1.0,6.0,46,-99.99,,,-99.99,,2013-08-10 04:53:00,
2013-08-09 22:22:00,54.0,35.0,-100.00,North,-999,-999.0,-999.0,48,-99.99,,,-99.99,,2013-08-10 05:22:00,
2013-08-09 22:42:00,56.0,34.0,-100.00,East,88,2.0,7.0,44,-99.99,,,-99.99,,2013-08-10 05:42:00,
2013-08-09 22:52:00,56.0,34.0,-100.00,East,88,2.0,7.0,44,-99.99,,,-99.99,,2013-08-10 05:52:00,
2013-08-09 23:02:00,55.0,33.0,-100.00,ESE,113,1.0,2.0,44,-99.99,,,-99.99,,2013-08-10 06:02:00,
2013-08-09 23:11:00,55.0,33.0,-100.00,ESE,113,1.0,2.0,44,-99.99,,,-99.99,,2013-08-10 06:11:00,
2013-08-09 23:22:00,55.0,33.0,-100.00,ESE,113,1.0,2.0,44,-99.99,,,-99.99,,2013-08-10 06:22:00,
2013-08-09 23:44:00,54.0,33.0,-100.00,SSE,158,1.0,2.0,44,-99.99,,,-99.99,,2013-08-10 06:44:00,
2013-08-09 23:52:00,54.0,33.0,-100.00,SSE,158,1.0,2.0,44,-99.99,,,-99.99,,2013-08-10 06:52:00,